sat.trackr.live / text

‹ back to catalog

STARLINK-35041

NORAD 66188 · 2025-243M

PAYLOAD ACTIVE UNKNOWN

§ Identity

Operator
Country
US
Launch date
2025-10-26
Launch site
AFETR
Launch vehicle
Mass (kg)
RCS (m²)

Purposes: comms

External: N2YO · Heavens-Above · Gunter

§ Orbital elements

Epoch: 2026-05-24T17:21:02.122272Z

Period
94.11 min
Inclination
53.1581°
Eccentricity
0.0000952
Mean motion
15.30198081 rev/d
Perigee alt
474.6 km
Apogee alt
475.9 km
Semi-major
6,853.4 km
B*
6.9202e-4
RAAN
252.1706°
Arg perigee
72.4316°
Mean anomaly
287.6789°
Rev number
3,229

§ Raw data

STARLINK-350411 66188U 25243M   26144.72294123  .00020191  00000+0  69202-3 0  99962 66188  53.1581 252.1706 0000952  72.4316 287.6789 15.30198081 32295

JSON: /api/v1/satellites/66188 · /tle

For live sub-satellite position, see the globe view (requires WebGL).

§ Visibility from observer

Set your observer location to see the next 7 days of passes ≥ 10°. The values pass through the URL so the page stays shareable.

No JS? Fill the form by hand. The geolocation button needs JavaScript.